Regional Weather Roundup
Issued by NWS Wakefield, VA

Home | Current Version | Previous Version | Graphics & Text | Print | Product List | Glossary On
Versions: 1 2 3 4 5 6 7 8 9 10 11 12 13 14 15 16 17 18 19 20 21 22 23 24 25 26 27
000
ASUS41 KAKQ 260115
RWRAKQ

REGIONAL WEATHER ROUNDUP
NATIONAL WEATHER SERVICE WAKEFIELD VA
900 PM EDT SAT MAR 25 2017

Note: "fair" indicates few or no clouds below 12,000 feet with no
significant weather and/or obstructions to visibility. * = Denotes
station may not report precipitation (e.g., rain,snow,etc.),
thunder or fog.

VAZ042-051-052>054-056-260200-
NORTHERN VIRGINIA

CITY           SKY/WX    TMP DP  RH WIND       PRES   REMARKS
WASH NATIONAL  CLOUDY    70  51  51 SE12      30.17R
DULLES         CLOUDY    68  51  54 E6        30.17R
FORT BELVOIR   CLOUDY    72  51  47 VRB3      30.17R
QUANTICO       CLOUDY    65  52  62 SW7       30.18R
FREDERICKSBRG* CLOUDY    71  53  53 S7        30.17R
STAFFORD*      MOCLDY    71  50  47 S3        30.21R
WARRENTON      CLOUDY    71  48  43 S3        30.16R
CULPEPER*      CLOUDY    73  53  49 S5        30.17S
MANASSAS*        N/A     69  52  54 SE5       30.17R
LEESBURG*      CLOUDY    70  55  60 E3        30.18S
WINCHESTER     CLOUDY    63  50  63 CALM      30.17R
FRONT ROYAL*   CLOUDY    66  52  59 CALM      30.16R
LURAY*         CLOUDY    64  54  68 CALM      30.17R
$$

VAZ048-049-060>072-079>083-260200-
CENTRAL AND SOUTH CENTRAL VIRGINIA

CITY           SKY/WX    TMP DP  RH WIND       PRES   REMARKS
RICHMOND       CLOUDY    65  52  62 S6        30.20R
CHESTERFIELD*  FAIR      66  41  39 S5        30.21R
PETERSBURG*    PTCLDY    58  52  80 CALM      30.21R
HANOVER        CLOUDY    68  50  52 S7        30.21R
TAPPAHANNOCK*  CLOUDY    69  37  30 S5        30.20R
QUINTON*       FAIR      69  53  56 SE6       30.20R
CHARLOTTSVILLE CLOUDY    70  50  49 S7        30.17R
GORDONSVILLE*  CLOUDY    68  51  55 S5        30.17R
ORANGE*        CLOUDY    70  50  49 CALM      30.19R
LOUISA*        CLOUDY    72  54  53 CALM      30.17R
BUMPASS*       FAIR      68  51  54 SW7       30.18R
FARMVILLE*     PTCLDY    66  52  61 S3        30.18R
CREWE*         FAIR      62  52  68 CALM      30.20R
FORT PICKETT*  FAIR      62  45  53 S3        30.20S
CHASE CITY*    FAIR      60  50  69 CALM      30.21R
CLARKSVILLE*   FAIR      61  50  67 CALM      30.21R
SOUTH HILL*    CLOUDY    58  54  84 CALM      30.27R
LAWRENCEVILLE* FAIR      61  52  73 CALM      30.21R
EMPORIA*       CLOUDY    59  50  72 CALM      30.23R
$$

VAZ088>098-260200-
SOUTHEAST VIRGINIA

CITY           SKY/WX    TMP DP  RH WIND       PRES   REMARKS
NORFOLK        CLOUDY    66  50  56 S6        30.22R
VIRGINIA BEACH CLOUDY    63  49  60 SE9       30.22R
NORFOLK NAVAL  CLOUDY    67  50  54 S3        30.23R
WEST POINT*    CLOUDY    66  50  56 S5        30.22R
SALUDA*        FAIR      68  53  58 S5        30.20R
NEWPORT NEWS   CLOUDY    65  51  60 SW3       30.22R
LANGLEY AFB    CLOUDY    68  52  57 S3        30.21R
FORT EUSTIS    CLOUDY    66  52  60 CALM      30.19R
WILLIAMSBURG*  CLOUDY    66  54  63 CALM      30.22R
HR EXEC AP*    FAIR      57  48  72 CALM      30.21R
FRANKLIN*      CLOUDY    60  51  71 CALM      30.22R
US460-WAKEFLD  CLOUDY    60  53  77 CALM      30.22R
$$

VAZ020-022-025-037-045-260200-
WEST CENTRAL AND SOUTHWEST VIRGINIA

CITY           SKY/WX    TMP DP  RH WIND       PRES   REMARKS
STAUNTON*      PTCLDY    65  48  54 S3        30.20R
WAYNESBORO*    CLOUDY    65  50  58 S5        30.19R
HOT SPRINGS VA PTCLDY    57  43  58 S8        30.24S
LYNCHBURG      CLOUDY    63  49  60 S5        30.21R
DANVILLE       CLEAR     58  49  72 CALM      30.20R
SOUTH BOSTON*  FAIR      66  47  50 CALM      30.20S
MARTINSVILLE   PTCLDY    57  47  67 CALM      30.23R
ROANOKE        CLOUDY    66  48  52 S7        30.20R
BLACKSBURG     PTCLDY    62  48  60 S3        30.24R
DUBLIN*        CLEAR     62  48  60 S5        30.22R
MARION*        PTCLDY    62  47  57 E7        30.22R
HILLSVILLE*    CLEAR     58  47  68 CALM      30.22R
RICHLANDS*     FAIR      63  47  55 SE9       30.16S
WISE*          PTCLDY    64  43  45 CALM      30.16S
ABINGDON*      MOCLDY    66  46  47 S8        30.16R
$$

MDZ021>025-VAZ099-100-260200-
SOUTHERN MARYLAND AND THE DELMARVA PENINSULA

CITY           SKY/WX    TMP DP  RH WIND       PRES   REMARKS
PATUXENT RIVER PTCLDY    54  51  90 SE3       30.19R
BAY BRIDGE APT CLOUDY    59  52  77 S5        30.18S
LEONARDTOWN    CLOUDY    64  50  59 CALM      30.21R
DOVER          MOCLDY    53  48  83 NE15      30.25R
GEORGETOWN     PTCLDY    54  45  71 E12G23    30.25R
EASTON         CLEAR     68  52  56 SE3       30.23R
CAMBRIDGE      CLEAR     63  52  67 SE6       30.19S
SALISBURY      CLOUDY    63  53  70 S3        30.20R
OCEAN CITY     CLOUDY    53  48  83 S7        30.21S
WALLOPS ISLAND PTCLDY    52  48  86 S7        30.23R
ACCOMACK*      MOCLDY    64  53  68 S5        30.22R
$$

NCZ012>017-030>032-260200-
NORTH CENTRAL AND EASTERN NORTH CAROLINA

CITY           SKY/WX    TMP DP  RH WIND       PRES   REMARKS
ROANOKE RAPIDS FAIR      64  50  59 S5        30.22R
RALEIGH        MOCLDY    66  49  54 S3        30.22R
ELIZABETH CITY PTCLDY    65  51  60 S10       30.24R
AHOSKIE*         N/A     61  51  71 CALM      30.24R
EDENTON*       PTCLDY    66  53  61 S10       30.26R
CURRITUCK*     PTCLDY    65  51  58 S5        30.25R
KILL DEVIL HLS NOT AVBL
MANTEO         PTCLDY    59  52  78 SW8       30.27R
CAPE HATTERAS  PTCLDY    64  55  72 SW7       30.28R
TARBORO*       NOT AVBL
GOLDSBORO      MOCLDY    67  52  58 S5        30.23R
WASHINGTON     CLOUDY    65  52  62 S5        30.26R
GREENVILLE     CLOUDY    66  52  59 S8        30.26R
NEW BERN       PTCLDY    64  55  72 S8        30.28R
WILMINGTON     PTCLDY    64  56  75 S5        30.27R
$$

VAZ048-260200-
ELSEWHERE

CITY           SKY/WX    TMP DP  RH WIND       PRES   REMARKS
HARRISBURG PA  MOCLDY    58  45  62 E10       30.23R
BALTIMORE      CLOUDY    67  52  58 SE3       30.17S
ANNAPOLIS      CLOUDY    60  51  72 E3        30.18R
ANDREWS AFB    CLOUDY    69  51  53 SE10      30.17R
PHILADELPHIA   MOCLDY    48  41  76 E10       30.30R
HENDERSON NC   PTCLDY    60  47  62 S5        30.22R
GREENSBORO     MOCLDY    64  48  56 S5        30.20R
ROCKY MOUNT    CLOUDY    62  52  69 S5        30.23R
$$

VAZ100-260200-
MARINE

STATION/POSITION TIME  TEMP    WIND        PRES    WAVE   SWELL
                       AIR SEA DIR/SP/G            HT/PER HT/PER
                 (UTC) (F)     (DEG/KT/KT) (MB)    (FT/S) (FT/S)
CAPE MAY NJ      0024   49 47   70/ 11/ 24 1023.8
LEWES DE         0024      47   80/ 22/ 26 1023.6
OCEAN-CITY-INLET 0024   48 45  200/  5/  6 1023.5
WACHAPREAGUE VA  0048   57 56  200/  5/  6 1023.0R
THOMAS POINT MD  0100   59 45  190/  9/  9   N/A
GOOSES REEF MD   0050   51     200/  4/  6 1022.9R
COVE POINT MD    0024   56     180/ 10/ 10 1022.8
SOLOMONS ISLAND  0024   56 48   80/  7/  8   N/A
BISHOPS HEAD MD  0024   53 54  130/  8/  9 1022.6
PINEY POINT MD   0030          140/  5/  5   N/A
POTOMAC MD       0050   55     160/  4/  6 1021.5R
CAMBRIDGE MD     0024   68 46  170/  5/  7 1021.5
LEWISETTA VA     0024   70 53  210/  5/  7 1021.8
RAPPAHANNOCK LGT 0030          210/ 14/ 14 1023.3R
STINGRAY PT      0050   56     180/  8/  8 1022.6R
YORK RVR RNG VA  0024   63     210/  8/  8 1022.2
YORKTOWN VA      0030   69 49  200/  3/  3 1022.6R
JAMESTOWN VA     0050   64     110/  2/  2   N/A
DOMINION TERM VA 0030   66     190/  6/  6 1023.0R
KIPTOPEKE VA     0030      49  160/  6/  6   N/A
CHES BAY BRIDGE  0030   70 48  200/  5/  6 1023.1R
CAPE HENRY VA    0030   69     160/  4/  6   N/A
WILLOUBY STN VA  0030   69     190/  5/  6 1023.9R
S CRANEY ISL VA  0030   66     180/  4/  4 1022.9R
CAPE HENRY BUOY  0042      49                N/A     2/ 5
CAPE CHARLES BUO 0051      48                N/A     2/ 5
OFFSHORE WE BUOY 0051      49                N/A     2/ 5
64NM E OF VA BCH 0050   55 49  210/ 12/ 14 1024.5R   2/ 8   2/ 8
DUCK PIER NC     0030   63 47  190/ 10/ 12 1023.6R
44100 DUCK FRF   0035      50                N/A     2/ 4
44056 DUCK FRF   0030      50                N/A     1/11
OREGON INLET NC  0018   59 58  190/ 11/ 13 1024.8
HATTERAS NC      0030   63 58  210/  6/  8 1024.9R
DIAMOND SHLS NC  0050   70 76  190/ 17/ 21 1025.2R   4/ 5   2/ 9
CAPE LOOKOUT NC  0000   66     230/  3/  4 1025.0R
$$




USA.gov is the U.S. government's official web portal to all federal, state and local government web resources and services.